Total_Precipitation_Accumulation
0.38 0.39 0.38 0.38 0.34 0.29 0.27 0.26 0.22 0.19 0.17 0.15 0.15 0.14 0.13 0.12 0.10 0.10 0.10 0.12 0.14 0.13 0.15 0.22 0.38 0.70 1.00 1.08 1.15 1.06 0.96 0.90 0.78 0.65 0.62 0.74 0.84 0.81 0.76 0.82 0.76 0.61 0.56
0.41 0.40 0.40 0.38 0.36 0.31 0.25 0.22 0.19 0.16 0.12 0.09 0.08 0.08 0.10 0.10 0.09 0.11 0.13 0.15 0.15 0.13 0.13 0.15 0.23 0.42 0.75 1.00 1.16 1.34 1.20 1.07 1.02 0.84 0.66 0.64 0.74 0.80 0.81 0.81 0.86 0.77 0.63
0.51 0.45 0.41 0.39 0.37 0.35 0.30 0.26 0.23 0.18 0.16 0.12 0.09 0.06 0.05 0.05 0.06 0.08 0.10 0.14 0.17 0.16 0.14 0.14 0.15 0.24 0.42 0.70 0.98 1.30 1.50 1.28 1.20 1.15 0.93 0.69 0.67 0.74 0.80 0.86 0.89 0.94 0.82
0.56 0.56 0.50 0.43 0.37 0.40 0.40 0.35 0.30 0.24 0.19 0.16 0.13 0.10 0.07 0.05 0.04 0.04 0.05 0.08 0.14 0.17 0.16 0.16 0.15 0.17 0.25 0.42 0.67 1.03 1.61 1.60 1.44 1.39 1.36 1.06 0.79 0.75 0.76 0.84 0.91 0.96 1.03
0.59 0.60 0.59 0.53 0.45 0.43 0.41 0.37 0.31 0.27 0.22 0.18 0.16 0.14 0.11 0.08 0.06 0.04 0.03 0.04 0.07 0.13 0.17 0.18 0.19 0.17 0.18 0.24 0.43 0.74 1.37 1.75 1.76 1.73 1.70 1.55 1.18 0.91 0.83 0.83 0.92 0.99 1.08
0.62 0.58 0.62 0.60 0.53 0.46 0.41 0.36 0.31 0.26 0.22 0.19 0.17 0.15 0.12 0.10 0.08 0.06 0.05 0.04 0.03 0.05 0.11 0.16 0.19 0.18 0.16 0.17 0.23 0.40 0.81 1.29 1.59 1.78 1.84 1.92 1.75 1.30 1.00 0.92 0.93 1.04 1.12
0.69 0.62 0.57 0.57 0.56 0.49 0.40 0.35 0.33 0.29 0.25 0.22 0.21 0.18 0.14 0.11 0.10 0.08 0.06 0.05 0.04 0.03 0.04 0.09 0.15 0.20 0.19 0.18 0.17 0.20 0.37 0.74 1.14 1.43 1.62 1.81 2.07 1.89 1.42 1.14 1.04 1.09 1.22
0.68 0.67 0.59 0.53 0.51 0.48 0.44 0.35 0.30 0.29 0.26 0.22 0.22 0.25 0.19 0.14 0.10 0.08 0.06 0.05 0.04 0.03 0.03 0.04 0.09 0.15 0.20 0.20 0.14 0.13 0.18 0.38 0.76 1.17 1.44 1.62 1.91 2.20 2.01 1.54 1.28 1.23 1.31
0.65 0.62 0.59 0.54 0.48 0.44 0.42 0.37 0.29 0.26 0.25 0.19 0.17 0.30 0.38 0.25 0.13 0.07 0.05 0.04 0.03 0.03 0.02 0.03 0.05 0.08 0.14 0.21 0.20 0.13 0.11 0.18 0.41 0.79 1.26 1.58 1.81 2.13 2.32 2.08 1.66 1.42 1.43
0.69 0.62 0.57 0.52 0.50 0.44 0.39 0.35 0.32 0.28 0.27 0.25 0.18 0.17 0.25 0.29 0.32 0.17 0.06 0.06 0.05 0.04 0.03 0.02 0.03 0.05 0.08 0.15 0.21 0.21 0.16 0.15 0.25 0.51 0.91 1.48 1.88 2.14 2.51 2.48 2.16 1.78 1.60
0.77 0.69 0.61 0.54 0.49 0.44 0.39 0.34 0.31 0.30 0.30 0.31 0.27 0.22 0.17 0.14 0.18 0.28 0.15 0.06 0.07 0.06 0.05 0.04 0.03 0.04 0.05 0.10 0.15 0.20 0.24 0.25 0.34 0.45 0.69 1.15 1.88 2.24 2.66 2.89 2.58 2.10 1.79
0.83 0.76 0.67 0.59 0.51 0.45 0.40 0.35 0.30 0.29 0.29 0.28 0.28 0.27 0.27 0.26 0.20 0.25 0.24 0.10 0.06 0.05 0.05 0.05 0.05 0.07 0.09 0.10 0.12 0.21 0.28 0.33 0.43 0.49 0.53 0.81 1.39 2.08 2.53 2.88 2.79 2.32 1.94
0.81 0.75 0.71 0.63 0.54 0.47 0.43 0.40 0.35 0.30 0.27 0.28 0.28 0.27 0.27 0.25 0.22 0.26 0.32 0.22 0.12 0.07 0.05 0.05 0.06 0.08 0.11 0.13 0.14 0.20 0.24 0.30 0.37 0.42 0.42 0.51 0.82 1.40 2.10 2.66 2.97 2.74 2.26
0.71 0.64 0.63 0.61 0.54 0.47 0.45 0.45 0.43 0.37 0.31 0.29 0.27 0.27 0.29 0.27 0.28 0.32 0.37 0.41 0.34 0.14 0.06 0.05 0.04 0.05 0.09 0.14 0.14 0.16 0.15 0.21 0.28 0.32 0.36 0.40 0.54 0.86 1.40 2.05 2.81 3.29 3.00
0.68 0.66 0.63 0.61 0.56 0.52 0.49 0.49 0.47 0.42 0.37 0.34 0.32 0.31 0.34 0.31 0.32 0.32 0.34 0.43 0.60 0.46 0.14 0.05 0.04 0.05 0.09 0.14 0.14 0.13 0.12 0.15 0.21 0.25 0.30 0.34 0.42 0.60 0.92 1.41 1.98 2.89 3.49
0.66 0.68 0.69 0.66 0.61 0.55 0.52 0.52 0.50 0.44 0.42 0.39 0.39 0.39 0.36 0.34 0.36 0.38 0.40 0.39 0.46 0.56 0.35 0.07 0.05 0.06 0.10 0.17 0.19 0.15 0.14 0.17 0.18 0.20 0.21 0.24 0.30 0.42 0.65 0.97 1.38 1.96 2.85
0.60 0.61 0.63 0.65 0.66 0.60 0.53 0.54 0.50 0.48 0.47 0.42 0.40 0.41 0.40 0.40 0.47 0.49 0.51 0.48 0.43 0.46 0.47 0.15 0.06 0.07 0.15 0.23 0.23 0.17 0.17 0.15 0.13 0.15 0.18 0.21 0.25 0.34 0.50 0.72 0.98 1.34 1.97
0.62 0.53 0.55 0.59 0.63 0.62 0.57 0.55 0.52 0.49 0.49 0.47 0.45 0.45 0.46 0.46 0.51 0.55 0.62 0.61 0.52 0.46 0.51 0.35 0.14 0.11 0.18 0.27 0.30 0.24 0.20 0.17 0.12 0.13 0.17 0.22 0.28 0.35 0.44 0.58 0.76 1.01 1.37
0.83 0.64 0.56 0.58 0.64 0.69 0.64 0.57 0.56 0.54 0.51 0.48 0.48 0.51 0.54 0.56 0.53 0.55 0.66 0.71 0.64 0.56 0.56 0.53 0.30 0.16 0.18 0.28 0.38 0.34 0.28 0.25 0.19 0.16 0.18 0.20 0.25 0.32 0.39 0.48 0.63 0.80 0.99
0.89 0.77 0.65 0.60 0.66 0.77 0.76 0.74 0.73 0.64 0.57 0.47 0.42 0.44 0.54 0.67 0.71 0.74 0.77 0.76 0.77 0.78 0.72 0.66 0.48 0.31 0.26 0.31 0.46 0.50 0.42 0.36 0.30 0.24 0.21 0.20 0.23 0.30 0.34 0.37 0.42 0.54 0.73
0.77 0.75 0.71 0.65 0.66 0.85 1.05 1.18 1.07 0.78 0.60 0.49 0.39 0.37 0.48 0.71 0.90 1.07 1.12 1.01 1.01 1.08 1.00 0.92 0.78 0.60 0.45 0.46 0.54 0.56 0.62 0.51 0.45 0.37 0.28 0.22 0.22 0.22 0.22 0.28 0.33 0.39 0.52
0.72 0.70 0.66 0.66 0.64 0.83 1.15 1.33 1.00 0.64 0.51 0.47 0.43 0.38 0.45 0.67 0.83 0.93 1.05 1.05 1.10 1.24 1.30 1.22 1.07 0.87 0.62 0.52 0.55 0.66 0.79 0.84 0.71 0.52 0.41 0.32 0.29 0.27 0.23 0.21 0.27 0.34 0.44
0.69 0.67 0.62 0.59 0.56 0.64 0.98 1.19 0.90 0.58 0.46 0.43 0.43 0.40 0.43 0.54 0.67 0.72 0.76 0.77 0.82 0.98 1.20 1.32 1.26 0.95 0.76 0.62 0.72 0.84 0.84 0.93 0.83 0.75 0.73 0.64 0.42 0.36 0.28 0.29 0.34 0.34 0.42
0.64 0.62 0.60 0.57 0.51 0.53 0.84 1.10 0.90 0.59 0.49 0.45 0.45 0.41 0.37 0.42 0.55 0.70 0.76 0.70 0.64 0.73 0.98 1.20 1.37 1.17 0.97 0.94 1.09 1.24 1.26 1.21 1.03 0.97 0.96 1.03 0.71 0.50 0.40 0.36 0.37 0.34 0.38
0.63 0.59 0.55 0.56 0.50 0.45 0.69 1.07 0.95 0.61 0.51 0.46 0.47 0.44 0.37 0.36 0.52 0.68 0.67 0.61 0.54 0.60 0.72 0.95 1.09 1.10 1.09 1.20 1.41 1.71 1.79 1.69 1.42 1.16 1.06 1.08 1.03 0.89 0.77 0.62 0.51 0.44 0.39
0.60 0.57 0.52 0.51 0.47 0.40 0.53 0.96 1.05 0.65 0.52 0.47 0.47 0.45 0.48 0.49 0.58 0.63 0.57 0.58 0.66 0.60 0.56 0.59 0.62 0.64 0.70 0.81 1.13 1.54 1.77 1.80 1.58 1.48 1.29 1.15 1.20 1.23 1.38 1.10 0.79 0.57 0.45